Theta_e
355 356 359 361 361 361 361 361 361 361 362 363 361 362 360 358 358 360 360 360 357 356 356 360 359 360 361 361 362 362 363 363 364 362 363 363 362 360 359 359 364 354 359
353 357 360 361 361 361 361 362 361 361 362 362 362 361 360 360 362 361 359 356 359 356 358 357 358 360 360 361 361 362 363 363 362 361 363 363 361 361 360 362 363 357 360
352 356 358 362 362 362 362 362 361 361 361 362 362 361 360 361 361 359 357 359 358 357 356 358 359 359 359 359 362 361 362 362 363 358 358 356 357 361 361 361 360 359 358
353 355 355 363 365 363 364 364 363 362 362 362 363 362 362 361 361 357 359 360 358 360 358 357 358 360 359 360 361 361 360 360 359 357 355 353 353 359 360 359 360 359 357
352 352 362 363 365 364 363 363 364 363 362 362 362 361 361 360 361 360 360 359 358 358 358 358 359 359 358 357 359 358 358 356 357 360 357 356 353 358 359 359 359 358 359
350 355 363 365 363 364 364 363 363 362 361 362 361 361 361 362 358 359 359 360 358 358 359 358 357 357 357 358 358 356 352 354 359 354 355 356 355 359 358 359 359 359 358
348 355 360 365 364 364 363 363 363 362 362 362 361 361 361 361 361 359 359 358 358 358 357 357 357 356 357 357 358 356 353 356 355 357 355 353 356 358 360 359 359 357 358
347 353 357 364 363 363 363 362 362 362 362 362 362 362 363 361 361 360 360 360 358 358 358 357 356 357 358 357 359 356 355 356 354 354 355 355 358 358 359 359 359 357 356
348 352 356 360 363 362 363 362 363 363 363 362 362 362 360 359 361 361 360 359 358 357 356 357 356 355 357 358 358 355 354 356 354 355 351 354 358 359 359 358 358 358 356
350 350 355 359 357 358 360 361 363 363 362 362 363 363 362 363 361 359 360 359 358 357 357 357 356 357 358 358 360 356 357 359 348 352 353 354 360 358 358 358 357 357 357
347 350 351 353 358 357 357 362 362 363 364 363 362 363 363 357 360 358 359 357 358 358 357 356 357 360 362 359 359 358 358 350 350 348 352 359 359 358 358 358 357 358 358
345 347 349 353 358 355 352 361 362 359 359 361 360 364 357 363 361 355 358 357 358 358 358 358 358 360 360 352 354 358 354 346 348 351 354 361 359 359 357 357 357 356 354
345 346 347 355 355 355 356 356 354 356 356 359 362 363 362 356 357 356 355 356 357 359 354 355 356 354 351 353 348 352 350 345 346 349 356 359 359 358 357 357 357 356 355
344 346 349 353 357 356 353 353 352 353 354 354 358 361 360 359 361 358 354 360 357 359 356 353 356 357 355 356 349 351 350 348 345 348 355 357 359 357 356 356 355 356 354
343 345 350 353 356 358 358 355 356 352 353 355 357 360 358 355 363 358 363 359 357 358 355 356 355 353 350 350 350 354 351 350 347 350 350 357 357 355 356 356 355 355 355
344 345 350 352 356 358 358 360 358 355 356 358 359 359 362 361 363 360 360 359 359 351 353 358 359 357 357 351 349 350 349 352 353 354 350 353 355 354 353 354 353 353 352
343 346 349 352 354 358 360 358 356 355 355 359 359 362 362 364 363 369 363 360 355 361 362 359 357 355 353 349 349 352 350 355 350 353 353 353 354 355 354 353 353 352 352
343 345 350 349 352 357 359 358 355 353 354 357 355 358 362 364 363 366 360 357 357 365 353 356 356 345 351 346 348 349 351 352 352 352 354 353 355 354 355 355 355 355 354
343 346 348 350 350 355 360 358 356 361 357 359 362 361 364 363 363 365 361 359 363 359 358 354 350 349 348 348 349 346 347 348 349 348 351 354 354 354 355 359 360 357 356
344 346 349 349 358 361 357 360 354 355 355 357 358 361 365 366 363 365 362 362 361 354 355 350 357 353 353 343 343 345 346 352 348 350 349 350 351 351 354 358 357 354 359
345 345 348 353 363 355 351 350 351 349 353 360 355 362 365 362 362 365 356 361 366 362 359 358 354 351 348 348 343 347 346 345 345 349 348 347 351 348 351 351 354 356 355
345 347 353 356 363 357 352 354 354 355 352 354 355 363 363 363 364 362 358 361 362 359 359 357 359 347 348 347 341 341 341 339 343 346 345 346 346 348 348 349 351 352 353
344 348 354 359 362 360 359 355 356 358 360 352 359 356 361 362 363 366 364 365 363 361 355 358 357 362 347 345 352 343 337 336 336 339 342 343 349 345 347 349 351 353 355
345 347 356 359 362 360 364 354 360 351 348 350 354 354 358 363 362 364 364 364 365 358 362 359 356 360 359 344 342 345 348 347 339 335 341 344 348 347 350 349 351 353 356
347 346 349 360 363 362 361 361 355 357 350 351 351 366 371 370 363 360 364 364 362 359 363 363 362 365 352 351 341 340 348 342 352 346 336 341 344 345 348 350 349 349 356
348 348 348 359 363 364 363 361 364 360 360 349 353 354 353 356 358 364 361 365 370 363 364 362 364 363 364 358 349 347 345 345 340 341 340 344 342 344 348 348 350 350 350
Wind_Speed
13 15 13 14 13 11 11 11 12 11 10 12 14 13 11 9 8 8 9 10 9 9 9 9 9 10 11 11 11 11 11 12 13 14 15 15 14 12 10 9 14 16 15
18 17 14 16 14 12 13 13 11 12 12 13 12 11 10 9 8 9 9 9 9 9 9 10 9 9 11 10 11 9 9 10 11 13 15 16 13 15 15 17 18 15 16
19 18 16 14 15 14 13 13 12 11 11 11 11 10 10 10 9 8 9 9 9 10 10 10 10 10 11 10 11 10 11 8 9 7 4 9 13 14 16 16 16 16 15
20 19 17 13 13 13 13 13 13 12 11 11 10 10 10 10 10 8 8 8 10 10 10 9 10 11 11 11 12 11 8 6 5 2 8 8 15 12 14 14 14 15 16
20 19 17 14 14 14 13 12 12 11 10 11 11 10 10 9 12 9 9 10 9 10 10 10 11 11 11 11 11 9 6 1 3 5 10 7 10 11 12 12 14 14 17
20 19 16 15 14 13 13 12 11 12 10 10 10 10 11 11 10 9 9 9 8 10 9 10 10 9 10 9 10 8 2 5 11 11 11 10 14 11 14 14 16 15 14
20 18 16 14 14 14 13 12 12 11 11 11 11 11 11 12 11 10 9 9 8 8 9 9 9 9 10 9 8 5 2 7 10 9 4 13 12 10 13 14 14 14 13
20 18 16 14 13 13 14 13 11 12 12 11 12 12 11 11 11 9 9 9 7 8 8 8 9 11 12 9 9 4 5 7 11 6 10 12 9 12 12 13 13 13 12
20 18 16 15 13 13 12 12 12 12 12 12 13 12 12 11 10 9 9 9 8 7 7 8 7 7 8 8 9 4 5 6 3 5 12 10 8 12 12 13 12 11 12
20 16 15 15 13 12 12 11 11 11 11 11 11 13 13 12 11 10 11 8 9 8 7 8 8 7 10 10 11 7 9 8 8 12 11 8 8 11 11 11 12 11 12
15 17 16 16 13 13 12 11 11 10 11 12 10 10 14 9 11 12 13 8 9 7 7 8 8 11 15 14 12 12 11 2 9 6 10 9 9 11 11 11 10 11 11
16 17 15 16 14 12 11 11 11 11 10 9 8 10 8 5 6 11 9 8 8 8 8 8 9 13 13 5 6 11 6 7 3 12 8 8 10 11 10 9 10 9 10
16 13 16 13 14 13 12 9 7 7 6 7 5 4 7 6 5 2 6 7 8 9 8 11 5 7 12 6 8 3 0 9 7 10 9 9 10 11 9 9 9 8 8
17 14 15 13 9 8 8 8 7 7 6 7 8 3 4 4 3 7 1 6 3 7 12 6 6 5 11 10 6 16 9 4 7 9 9 10 9 9 8 8 7 8 6
17 15 15 14 9 8 7 5 5 7 5 8 8 6 5 3 3 5 3 1 6 3 5 7 2 8 7 6 4 6 4 7 5 9 8 11 9 8 8 7 7 6 6
18 16 16 14 12 10 8 3 4 6 4 3 4 7 1 3 2 4 5 3 5 9 8 7 3 1 1 4 8 5 9 7 5 7 10 8 9 8 7 7 5 5 4
17 17 16 15 14 11 8 7 5 4 7 4 5 6 4 0 2 1 3 3 6 3 4 3 4 2 1 4 7 7 6 6 7 5 7 8 9 10 10 8 6 5 4
17 17 16 14 15 12 9 8 7 6 6 4 6 7 6 4 2 3 3 2 3 2 8 5 3 3 4 1 5 3 4 6 8 5 9 6 7 8 9 11 9 7 7
18 17 16 15 16 13 11 9 8 7 4 5 3 5 8 5 4 3 2 5 3 2 5 2 9 7 6 6 5 4 2 5 5 7 6 3 9 7 5 13 12 11 9
18 18 16 14 13 13 10 7 7 8 7 5 8 6 7 5 4 1 4 5 6 2 4 8 4 5 4 6 1 4 4 4 7 4 4 7 6 1 11 10 9 9 14
19 19 17 15 12 11 10 10 9 8 8 5 5 7 8 3 5 3 2 6 4 3 4 3 3 3 3 2 3 2 5 3 1 5 5 4 6 7 7 2 6 7 8
20 19 17 15 13 11 10 8 8 7 9 7 7 8 6 7 5 6 8 4 3 4 3 3 1 5 2 6 2 4 1 6 6 2 3 1 3 3 8 6 1 1 3
22 20 18 16 15 13 12 8 7 7 5 8 5 7 8 8 8 5 5 5 4 5 7 5 5 7 1 3 3 3 2 4 8 5 5 6 4 5 1 6 4 5 4
23 21 19 18 16 15 13 12 12 10 9 8 7 8 9 9 8 8 6 6 4 4 3 5 4 5 5 5 3 5 3 5 2 3 6 5 6 5 4 5 8 6 5
23 22 20 19 17 16 15 12 12 12 9 9 9 10 6 8 8 8 8 9 6 7 4 2 2 5 4 4 7 4 2 2 5 1 3 5 5 6 6 6 3 4 9
23 22 22 20 19 17 17 16 14 14 11 10 9 10 9 9 9 8 8 7 8 4 7 6 5 5 6 5 4 3 5 2 2 5 2 2 1 3 0 3 4 4 4
Wind_Direction
156 137 155 157 149 137 131 136 139 141 122 116 120 118 116 116 114 105 91 83 84 89 95 93 93 92 91 94 91 91 94 99 97 96 90 90 87 78 72 103 119 91 85
139 141 148 143 141 137 126 129 134 127 123 121 123 125 127 120 112 109 100 99 93 85 92 99 91 97 95 91 92 84 92 102 104 108 109 99 84 79 79 71 71 91 83
135 131 147 138 137 134 129 128 128 126 127 128 128 128 125 119 120 105 102 90 86 86 88 85 101 93 97 96 84 80 82 109 114 106 111 78 82 80 79 84 88 87 89
141 149 137 138 130 130 133 131 130 134 132 135 131 130 122 125 114 109 100 98 83 80 85 81 90 95 94 86 91 81 82 85 114 144 154 71 90 90 93 95 96 99 94
143 126 117 132 136 132 124 126 120 122 126 129 129 124 126 113 113 119 99 98 95 90 86 92 96 99 92 95 94 81 79 91 151 158 81 75 101 92 93 105 109 86 76
127 120 127 133 130 131 124 119 120 118 126 122 123 132 119 127 117 110 96 87 92 88 84 82 92 99 107 98 96 92 117 292 276 84 93 79 74 97 97 94 86 88 91
127 127 133 129 129 123 124 126 122 125 120 122 117 125 125 113 114 105 101 94 86 90 90 88 89 99 113 109 102 96 228 270 82 71 64 87 87 98 91 94 98 92 90
127 140 134 131 132 132 128 129 125 124 123 119 119 120 116 114 114 117 106 102 101 96 103 100 93 96 98 105 122 142 274 314 96 84 90 83 95 95 99 98 100 102 98
139 123 133 134 135 129 127 125 126 125 127 124 123 121 121 124 121 114 108 102 105 105 114 115 106 105 115 116 128 176 252 262 191 87 109 101 102 101 100 99 97 95 103
133 143 144 138 149 148 145 129 124 125 121 129 132 134 137 130 136 130 133 99 100 113 120 122 121 119 128 134 154 192 237 247 108 134 85 91 108 101 107 101 104 100 98
141 149 152 150 145 145 139 132 135 132 131 133 143 158 174 135 150 143 82 111 106 114 131 143 155 151 141 147 175 194 225 191 101 77 88 97 107 107 107 104 105 97 92
153 160 150 147 144 161 147 161 154 148 164 169 136 191 209 75 59 103 107 123 121 142 148 175 196 196 187 168 167 200 226 119 89 87 91 100 104 101 102 98 99 97 98
163 171 151 134 133 190 113 183 160 175 139 122 130 218 101 125 145 220 137 157 148 189 171 186 139 249 164 268 182 210 58 144 124 88 98 102 105 108 106 114 107 106 98
171 173 147 138 170 135 160 193 170 129 161 155 148 170 145 207 151 70 184 193 62 172 184 38 158 149 152 139 223 31 45 4 97 103 106 106 106 106 110 106 101 107 106
172 168 146 148 171 131 209 196 167 138 176 114 152 203 174 181 142 145 104 256 126 226 166 93 338 22 21 132 53 136 73 60 83 116 117 123 115 113 112 112 113 114 105
176 167 152 163 171 149 211 163 142 167 107 118 134 133 262 333 141 139 158 195 268 108 263 108 74 112 52 282 193 21 200 84 18 55 125 133 142 140 130 124 123 119 127
179 167 160 171 170 162 175 177 208 166 148 163 104 145 165 134 172 21 74 188 86 121 94 122 146 310 281 129 257 117 109 109 109 112 118 139 148 167 159 156 160 166 183
183 169 169 184 166 173 170 181 210 171 182 136 152 150 157 129 118 211 113 182 65 233 68 273 183 30 63 264 46 328 164 132 119 168 152 166 166 159 170 168 179 195 204
181 171 181 190 167 177 161 180 208 139 228 165 98 103 152 161 165 132 189 113 240 214 139 298 122 207 209 215 165 124 81 173 105 136 124 152 146 186 159 175 184 199 211
179 173 191 185 166 169 162 188 201 150 227 203 144 142 165 167 164 152 186 137 241 196 87 140 244 165 285 126 279 126 306 130 154 124 148 212 107 229 141 149 192 195 204
181 176 188 185 167 171 180 193 190 178 206 188 197 135 147 188 177 219 160 156 271 346 51 124 156 175 297 162 80 218 77 204 185 181 199 181 135 200 112 172 274 166 182
184 182 183 187 172 187 192 199 197 201 188 197 202 161 209 186 169 204 142 232 176 190 177 196 224 301 289 102 272 28 105 200 189 210 83 343 58 194 167 173 72 232 252
187 186 182 187 178 188 198 193 199 205 209 201 179 175 191 191 184 234 158 120 170 271 160 207 238 258 221 152 223 242 148 264 159 163 157 214 104 245 316 142 182 176 192
191 188 183 184 184 187 210 185 189 203 204 183 206 193 169 199 195 180 168 166 197 257 106 191 214 285 264 171 181 256 350 43 45 50 169 148 199 239 177 263 154 177 190
192 189 189 183 187 190 194 211 183 218 201 187 201 154 217 168 204 201 176 171 182 214 187 231 111 265 244 296 204 178 323 143 132 244 290 169 186 191 183 192 237 197 176
193 192 191 183 189 195 188 210 196 195 229 206 205 165 189 179 188 208 191 198 191 176 179 199 181 227 288 297 327 243 190 186 253 221 263 250 109 133 215 197 187 218 222